Location: Gradaro
(45.0833°N, 10.8833°E)
Time: 05:30:00
(UTC+00:00)

FENGYUN 1C DEB - Pass Details

Date: 24 June 2021
Orbit: 744 x 851 km, 99.4° (Epoch: 19 July)

Event Time Altitude Azimuth Distance (km) Brightness Sun altitude
Exits shadow 00:34:23 29° 235° (SW) 1,478 ? -19.4°
Maximum altitude 00:35:43 33° 263° (W) 1,364 ? -19.3°
Drops below altitude 10° 00:40:30 10° 326° (NNW) 2,407 ? -19.0°
Sets 00:43:03 0° 336° (NNW) 3,325 ? -18.9°
